Regional Weather Roundup
Issued by NWS Cleveland, OH

Home | Current Version | Previous Version | Graphics & Text | Print | Product List | Glossary On
Versions: 1 2 3 4 5 6 7 8 9 10 11 12 13 14 15 16 17 18 19 20 21 22 23 24 25 26 27 28 29 30 31 32 33 34 35 36 37 38 39 40 41 42 43 44 45 46 47 48 49 50
000
ASUS41 KCLE 040602
RWRCLE
OHIO REGIONAL WEATHER ROUNDUP
NATIONAL WEATHER SERVICE CLEVELAND, OH
200 AM EDT FRI SEP 04 2015

NOTE: "FAIR" INDICATES FEW OR NO CLOUDS BELOW 12,000 FEET WITH NO
SIGNIFICANT WEATHER AND/OR OBSTRUCTIONS TO VISIBILITY.

OHZ001>008-015>018-024>027-034-035-043-044-040700-
   NORTHWEST OHIO

CITY           SKY/WX    TMP DP  RH WIND       PRES   REMARKS
DEFIANCE       MOCLDY    74  68  81 CALM      29.94R
FINDLAY        LGT RAIN  73  65  75 SE9       29.96R
TOLEDO EXPRESS CLOUDY    68  66  93 NE8       29.98R
TOLEDO EXEC    CLOUDY    68  64  87 SE15      29.97F
LIMA           MOCLDY    75  67  76 SW5       29.96S
$$

OHZ009>014-019>023-028>033-038-089-040700-
   NORTHEAST OHIO

CITY           SKY/WX    TMP DP  RH WIND       PRES   REMARKS
CLE-HOPKINS    TSTM      68  65  90 S7        30.02R
CLE-LAKEFRONT  CLOUDY    70  66  87 CALM      29.98S
CUY CO. ARPT   NOT AVBL
LORAIN-ELYRIA  LGT RAIN  66  64  93 S5        30.01S
ASHTABULA      MOCLDY    66  65  96 W3        30.02S FOG
AKRON-CANTON   CLOUDY    68  64  87 SE5       30.02F
WOOSTER        LGT RAIN  66  65  96 S3        30.03S
MANSFIELD      CLOUDY    67  66  97 SE12      30.02R THUNDER
YOUNGSTOWN     CLOUDY    68  67  96 W6        30.02S FOG
$$

OHZ042-051>053-060>062-070>072-077>081-040700-
  SOUTHWEST OHIO

CITY           SKY/WX    TMP DP  RH WIND       PRES   REMARKS
CINC-COVINGTON CLEAR     71  67  87 CALM      29.98S
CINC-LUNKEN    CLEAR     68  68 100 CALM      29.98S FOG
HAMILTON       CLEAR     68  67  96 CALM      29.98S FOG
DAYTON         PTCLDY    74  68  81 SW7       29.99R
WRIGHT-PAT AFB CLEAR     71  68  90 CALM      29.97R
DAYTON GENERAL CLEAR     74  65  73 CALM      29.97S
WILMINGTON     CLEAR     68  66  93 SE3       29.98S FOG
$$

OHZ036-037-039>041-045>050-054>059-063>069-073>076-082>088-040700-
  CENTRAL AND SOUTHEAST OHIO

CITY           SKY/WX    TMP DP  RH WIND       PRES   REMARKS
COLUMBUS       MOCLDY    68  65  90 N7        30.00R
OSU AIRPORT    MOCLDY    72  65  78 NE7       30.00R
BOLTON FIELD   NOT AVBL
RICKENBACK AFB NOT AVBL
NEWARK         MOCLDY    71  65  81 NE7       30.00S
MARION         CLOUDY    69  65  86 SE8       29.99S
LANCASTER      PTCLDY    66  64  93 CALM      29.99S FOG
ZANESVILLE     MOCLDY    69  66  90 NE6       30.02R
NEW PHILLY     MOCLDY    68  67  96 W3        30.04R FOG
$$



USA.gov is the U.S. government's official web portal to all federal, state and local government web resources and services.